Temp
57 57 57 58 58 58 58 57 56 55 55 54 54 53 52 52 51 50 49 50 49 51 51 50 51 52 51 51 50 53 53 53
57 56 55 55 56 57 57 55 54 56 57 55 53 50 50 50 50 48 48 48 49 49 49 49 50 49 48 48 50 50 52 52
53 53 54 55 54 54 54 55 55 56 56 54 53 51 49 49 49 48 48 47 47 47 46 47 47 48 47 47 47 48 50 51
52 52 53 52 52 52 53 53 54 53 52 52 50 49 50 49 48 47 46 46 46 45 45 45 46 46 45 46 46 45 45 49
53 52 50 51 50 50 51 50 51 51 52 52 51 53 49 47 46 46 46 45 44 44 44 44 44 45 44 45 46 45 45 43
52 52 52 52 50 50 49 49 50 50 50 50 50 47 46 46 46 44 44 44 44 43 43 43 43 44 43 42 43 43 44 43
52 53 51 50 50 49 48 49 49 49 49 48 48 46 44 44 44 43 43 42 43 42 42 42 42 42 41 42 42 41 41 41
50 49 49 48 48 48 48 49 47 47 47 46 45 44 44 43 42 42 41 41 41 39 40 40 41 40 40 40 40 39 40 39
50 50 50 49 48 47 47 46 43 43 44 43 43 43 42 42 41 41 40 39 39 39 39 39 39 39 39 40 39 39 39 39
49 51 51 49 48 44 45 45 43 43 42 40 40 41 41 40 40 40 39 39 39 38 39 39 39 39 38 38 38 37 38 39
50 52 49 49 47 48 46 44 42 42 42 41 41 41 40 40 39 38 38 38 38 38 38 38 37 36 36 37 37 37 37 37
50 52 50 48 47 44 43 42 41 40 41 41 39 39 39 39 38 38 38 37 37 36 37 36 35 35 35 35 35 35 35 35
50 49 47 46 45 44 42 42 41 42 42 38 38 38 37 38 38 37 37 36 37 36 36 35 34 34 35 34 34 34 33 33
49 47 45 44 43 43 42 43 43 42 41 38 38 38 38 36 36 36 36 36 36 36 36 35 34 33 34 34 33 33 33 33
48 46 45 46 45 44 43 42 42 42 38 37 35 37 36 34 35 36 35 35 35 35 35 34 34 34 34 34 34 33 33 32
47 46 46 46 44 44 43 42 41 39 37 34 33 33 35 35 33 34 34 34 34 35 34 34 34 34 33 32 33 32 31 31
49 46 45 44 43 43 40 39 38 37 34 32 32 34 33 31 32 31 32 31 30 30 31 32 32 33 29 28 30 30 29 28
46 45 44 44 44 40 39 38 36 35 32 31 31 30 28 27 29 30 27 26 28 26 25 28 27 30 29 27 25 27 26 25
45 44 43 43 41 41 38 35 34 32 30 29 30 28 25 26 23 22 22 24 23 23 24 25 28 29 28 26 24 24 24 23
MSLP
1016.96 1017.60 1018.09 1018.41 1018.77 1019.02 1019.42 1019.89 1020.47 1020.96 1021.30 1021.55 1021.73 1022.31 1022.85 1023.04 1023.15 1023.24 1023.05 1023.03 1022.78 1022.37 1022.09 1022.02 1021.64 1021.15 1021.10 1021.12 1020.88 1020.33 1019.62 1019.01
1017.08 1017.91 1018.53 1018.90 1019.13 1019.17 1019.53 1020.04 1020.66 1020.91 1021.17 1021.21 1021.59 1022.19 1022.86 1023.12 1023.46 1023.61 1023.42 1023.58 1023.27 1022.59 1022.51 1022.55 1022.19 1021.86 1021.61 1021.22 1021.03 1020.70 1019.70 1019.51
1016.80 1017.74 1018.34 1018.75 1019.20 1019.50 1019.81 1020.07 1020.37 1020.70 1020.99 1021.44 1021.71 1022.32 1023.13 1023.22 1023.60 1024.03 1024.06 1023.69 1023.49 1023.10 1023.10 1023.01 1022.90 1022.50 1022.28 1021.72 1021.37 1021.05 1020.59 1020.39
1016.09 1017.27 1018.01 1018.64 1019.06 1019.50 1019.84 1020.25 1020.47 1020.76 1021.35 1021.87 1022.29 1022.69 1023.27 1023.51 1023.71 1023.74 1024.05 1023.93 1024.10 1023.95 1023.67 1023.37 1023.23 1023.13 1022.91 1022.51 1022.08 1021.93 1021.26 1020.95
1015.59 1016.73 1017.70 1018.27 1018.94 1019.58 1020.03 1020.57 1020.88 1021.15 1021.38 1021.79 1022.01 1022.03 1022.69 1023.74 1023.91 1023.96 1024.15 1024.33 1024.46 1024.32 1024.14 1023.87 1023.79 1023.61 1023.41 1023.31 1022.53 1022.57 1022.30 1021.89
1015.09 1016.29 1017.37 1018.34 1019.12 1019.63 1020.18 1020.59 1020.86 1021.22 1021.45 1021.46 1021.64 1022.17 1022.85 1023.69 1024.05 1024.38 1024.63 1024.77 1024.96 1024.97 1024.44 1024.37 1024.11 1024.18 1023.96 1023.59 1023.17 1023.19 1023.32 1022.91
1015.05 1016.37 1017.40 1018.19 1019.05 1019.61 1019.99 1020.12 1020.54 1021.15 1021.63 1021.77 1021.98 1022.44 1023.03 1023.50 1023.95 1024.00 1024.44 1024.95 1025.34 1025.55 1025.29 1024.69 1024.80 1024.56 1024.47 1024.11 1023.85 1024.11 1023.89 1023.69
1014.55 1015.52 1016.87 1018.01 1018.43 1019.36 1020.05 1020.28 1020.88 1021.45 1021.89 1022.33 1022.81 1023.66 1023.87 1024.27 1024.59 1024.54 1024.59 1025.45 1025.68 1025.93 1025.99 1025.27 1025.12 1025.10 1025.16 1024.49 1024.36 1024.81 1024.60 1024.54
1014.68 1015.44 1016.41 1017.77 1018.58 1019.27 1020.14 1020.86 1021.38 1021.93 1022.46 1022.93 1023.06 1023.57 1024.10 1024.31 1024.85 1025.20 1025.28 1025.72 1026.39 1026.33 1026.36 1025.73 1025.69 1025.48 1025.47 1025.13 1024.42 1025.42 1024.99 1025.13
1014.46 1015.26 1015.86 1017.59 1018.44 1019.27 1020.05 1020.85 1021.44 1022.13 1022.77 1023.36 1023.47 1024.06 1024.34 1024.56 1025.37 1025.70 1025.38 1025.67 1025.87 1026.68 1026.62 1025.74 1026.11 1026.00 1026.12 1026.08 1025.30 1025.17 1025.45 1025.28
1014.71 1015.14 1016.02 1017.47 1018.82 1019.51 1020.38 1020.91 1021.36 1022.00 1023.18 1023.40 1023.86 1024.37 1024.65 1025.07 1025.54 1025.96 1026.06 1026.11 1026.14 1026.54 1026.50 1026.13 1026.50 1026.68 1026.65 1026.45 1026.04 1025.98 1025.51 1025.47
1014.39 1014.99 1016.29 1017.36 1018.27 1019.27 1020.08 1020.66 1021.42 1022.07 1022.86 1023.32 1024.21 1024.64 1025.09 1025.65 1026.04 1026.43 1026.04 1026.49 1026.54 1026.97 1026.59 1026.68 1026.88 1026.93 1026.93 1026.87 1026.71 1026.57 1026.05 1025.94
1014.97 1015.46 1016.25 1017.10 1018.04 1018.76 1019.72 1020.98 1021.52 1021.96 1022.50 1022.95 1023.96 1024.74 1025.39 1025.74 1026.29 1026.59 1026.61 1026.77 1026.78 1027.01 1026.93 1026.97 1027.10 1027.40 1027.47 1027.14 1026.83 1026.89 1026.84 1026.54
1014.26 1015.27 1016.13 1016.89 1017.69 1018.63 1019.35 1020.44 1021.37 1021.80 1022.65 1023.08 1023.81 1024.55 1025.30 1025.96 1026.34 1026.91 1027.00 1027.08 1027.11 1027.16 1027.10 1027.10 1027.27 1027.49 1027.48 1027.55 1027.37 1027.14 1027.19 1027.03
1013.42 1014.22 1014.75 1015.80 1016.76 1017.71 1018.94 1020.16 1021.14 1021.68 1022.47 1023.20 1023.83 1024.64 1025.34 1026.07 1026.71 1026.74 1027.16 1027.56 1027.14 1027.34 1027.27 1027.42 1027.66 1027.79 1027.70 1027.68 1027.59 1027.56 1027.54 1027.55
1012.87 1013.53 1014.62 1015.79 1016.51 1017.28 1018.31 1019.43 1020.43 1021.27 1022.26 1023.40 1024.03 1024.94 1025.41 1026.31 1026.72 1027.08 1027.53 1027.90 1027.52 1027.51 1027.53 1027.69 1027.79 1027.80 1028.11 1028.15 1028.00 1028.00 1027.99 1028.05
1012.59 1013.38 1014.12 1014.73 1015.86 1016.81 1018.16 1019.27 1020.16 1021.08 1022.21 1023.40 1024.49 1025.16 1025.59 1026.34 1026.87 1027.51 1027.91 1028.37 1028.05 1028.10 1028.08 1028.15 1028.03 1028.19 1028.83 1028.94 1028.66 1028.64 1028.80 1028.77
1012.50 1013.40 1014.11 1014.76 1015.70 1016.93 1017.88 1019.00 1020.13 1021.11 1022.36 1023.48 1024.75 1025.71 1025.96 1026.43 1027.02 1027.74 1028.47 1028.73 1028.64 1028.72 1028.81 1028.84 1028.78 1028.67 1029.00 1029.44 1029.63 1029.48 1029.42 1029.36
1012.83 1013.21 1014.08 1014.88 1016.12 1017.24 1018.17 1019.22 1020.19 1021.32 1022.42 1023.58 1024.61 1025.70 1026.49 1026.80 1027.40 1028.47 1028.87 1029.04 1029.07 1029.19 1029.34 1029.35 1029.10 1028.93 1029.34 1029.77 1030.00 1029.89 1029.78 1029.68
Wind_Speed
10 11 10 10 10 10 11 9 11 10 8 8 8 9 8 7 7 8 10 8 10 7 7 8 7 6 7 9 10 8 7 10
11 10 10 10 9 10 11 12 10 8 5 5 6 6 6 7 7 10 10 8 8 10 7 8 8 8 9 9 8 10 7 11
14 13 11 9 10 9 10 10 9 5 4 5 4 5 6 6 6 8 8 10 10 9 9 8 9 7 10 10 11 7 6 9
18 16 13 12 11 10 9 9 7 6 8 8 8 7 4 3 5 6 8 10 10 10 10 8 8 8 8 9 10 11 7 7
17 17 14 13 11 10 10 9 9 8 8 7 5 4 4 3 4 5 6 9 9 9 9 8 9 7 8 8 9 8 8 7
19 18 15 12 11 10 10 10 10 9 8 9 8 8 7 5 5 6 7 7 9 9 9 8 8 7 8 9 10 10 7 6
17 16 15 13 11 11 11 13 12 10 9 9 9 11 9 7 6 5 5 5 5 9 8 8 8 8 8 8 9 10 8 7
19 20 17 15 15 13 11 11 11 9 9 9 9 8 8 8 6 5 5 4 4 6 6 8 7 8 8 8 9 8 8 6
17 19 18 16 14 13 10 9 10 9 9 10 10 10 5 6 6 5 5 4 4 5 5 7 8 8 8 7 7 6 7 5
18 19 16 16 15 13 12 12 11 10 10 8 9 8 8 8 7 5 5 5 5 5 5 7 7 8 8 7 6 7 6 7
15 16 15 14 13 11 11 10 12 11 9 8 8 8 8 8 6 6 5 6 6 5 6 7 7 7 7 7 6 7 7 7
15 15 12 13 13 13 12 12 13 12 11 10 9 8 8 7 6 5 6 6 6 5 6 7 7 7 7 6 7 7 7 7
10 10 13 14 14 15 14 12 12 12 12 12 11 9 8 7 6 6 5 6 6 6 6 6 7 6 7 7 7 7 8 8
12 12 14 14 14 14 14 14 13 13 12 11 11 10 8 7 7 5 5 5 6 6 7 7 6 6 6 7 7 7 7 8
13 14 17 17 16 16 15 13 13 13 12 11 11 10 9 7 7 7 6 4 6 6 6 7 7 7 6 7 7 8 8 8
13 15 14 14 15 16 15 15 15 14 13 10 10 10 10 8 8 7 6 5 6 6 7 7 7 7 6 6 7 8 8 8
9 12 14 16 17 15 15 15 14 13 12 10 9 11 11 9 8 8 7 6 7 7 7 7 7 7 11 10 7 7 8 8
6 12 14 14 15 15 16 15 13 13 12 11 10 9 10 10 10 8 7 6 7 7 6 6 6 7 10 10 9 6 6 7
5 8 10 12 13 14 12 13 13 12 11 11 11 10 9 10 10 8 8 7 7 6 5 4 5 6 9 8 9 6 7 8
Wind_Direction
155 148 141 139 133 125 128 125 120 114 109 102 90 78 68 60 54 49 46 39 41 45 48 36 26 29 22 9 357 352 336 336
156 148 143 133 130 132 139 134 135 142 141 125 103 97 87 73 63 50 49 43 39 41 39 29 23 29 23 20 1 353 355 349
163 155 153 151 137 132 138 141 152 150 130 115 120 115 87 81 69 58 48 49 40 47 38 32 27 23 25 25 20 1 1 7
168 163 156 148 144 143 148 153 153 137 124 117 109 107 103 88 69 67 49 48 43 40 43 43 37 30 25 23 23 20 4 15
168 161 158 157 146 141 139 138 127 125 143 144 157 131 128 99 87 73 65 53 49 49 48 47 45 39 35 22 31 23 10 16
173 167 160 151 148 145 137 133 134 148 156 150 134 119 117 120 99 84 66 59 48 42 46 45 47 37 34 35 34 32 24 16
167 160 155 154 152 154 152 149 149 151 148 140 133 135 136 132 118 101 74 55 42 39 38 49 39 36 32 34 39 34 30 33
170 165 166 167 172 165 164 161 148 144 132 114 111 114 113 103 90 79 89 66 50 43 34 43 42 39 35 41 41 38 33 29
177 170 174 180 171 166 162 151 134 125 118 121 126 125 119 112 107 115 96 80 45 43 42 50 45 40 36 37 57 32 32 30
183 181 178 177 174 167 162 153 143 137 133 136 123 123 122 113 113 106 101 106 86 53 48 56 44 40 32 25 41 46 35 22
192 187 178 176 174 165 161 153 146 141 144 133 130 128 116 117 114 106 102 88 83 78 62 62 54 47 40 29 32 29 35 34
198 191 179 174 168 162 158 155 153 148 153 136 127 127 120 112 114 114 99 98 88 79 68 66 61 56 48 46 45 27 28 28
213 186 171 172 172 169 162 161 164 164 152 140 137 128 133 137 132 106 104 105 93 77 71 79 68 58 49 53 54 41 29 26
185 174 180 179 177 170 162 171 173 153 152 142 141 143 144 135 122 125 107 108 104 95 85 78 75 68 62 56 51 48 42 31
198 189 186 182 178 171 170 171 161 156 149 148 145 150 144 139 144 123 115 123 108 103 94 78 75 69 65 61 57 56 51 42
205 201 193 187 179 174 170 163 162 155 149 148 149 149 143 144 135 123 120 123 107 101 96 90 80 68 58 59 61 57 50 47
224 204 189 181 178 171 159 158 156 151 145 141 146 152 144 137 131 132 124 119 101 92 89 85 80 76 71 68 61 67 59 48
198 195 187 179 175 160 164 158 149 146 141 140 144 152 142 135 138 129 123 119 107 96 82 88 84 80 81 81 81 75 75 56
222 176 171 166 152 165 149 147 145 138 137 140 149 149 140 134 120 130 129 117 101 94 89 86 89 82 86 97 98 92 78 59